Time,TemperatureF,DewpointF,PressureIn,WindDirection,WindDirectionDegrees,WindSpeedMPH,WindSpeedGustMPH,Humidity,HourlyPrecipIn,Conditions,Clouds,dailyrainin,SoftwareType,DateUTC
2013-02-15 00:02:00,36.0,29.0,29.89,SW,228,8.0,17.0,75,0.00,,,0.01,,2013-02-15 05:02:00,
2013-02-15 00:12:00,36.0,29.0,29.89,SW,228,8.0,17.0,75,0.00,,,0.01,,2013-02-15 05:12:00,
2013-02-15 00:22:00,36.0,29.0,29.89,WSW,250,8.0,23.0,74,0.00,,,0.01,,2013-02-15 05:22:00,
2013-02-15 00:32:00,36.0,28.0,29.90,SW,219,9.0,22.0,72,0.00,,,0.01,,2013-02-15 05:32:00,
2013-02-15 00:42:00,36.0,28.0,29.90,SW,219,9.0,22.0,72,0.00,,,0.01,,2013-02-15 05:42:00,
2013-02-15 00:52:00,36.0,27.0,29.90,West,267,10.0,18.0,69,0.00,,,0.01,,2013-02-15 05:52:00,
2013-02-15 01:02:00,36.0,26.0,29.91,WSW,243,11.0,22.0,67,0.00,,,0.01,,2013-02-15 06:02:00,
2013-02-15 01:11:00,36.0,26.0,29.91,WSW,243,11.0,22.0,67,0.00,,,0.01,,2013-02-15 06:11:00,
2013-02-15 01:22:00,36.0,26.0,29.91,WSW,252,11.0,22.0,67,0.00,,,0.01,,2013-02-15 06:22:00,
2013-02-15 01:32:00,35.0,26.0,29.91,WSW,244,7.0,21.0,68,0.00,,,0.01,,2013-02-15 06:32:00,
2013-02-15 01:42:00,35.0,26.0,29.91,WSW,244,7.0,21.0,68,0.00,,,0.01,,2013-02-15 06:42:00,
2013-02-15 01:52:00,35.0,26.0,29.91,WSW,257,9.0,21.0,68,0.00,,,0.01,,2013-02-15 06:52:00,
2013-02-15 02:01:00,35.0,25.0,29.90,SW,233,10.0,22.0,67,0.00,,,0.01,,2013-02-15 07:01:00,
2013-02-15 02:11:00,35.0,25.0,29.90,SW,233,10.0,22.0,67,0.00,,,0.01,,2013-02-15 07:11:00,
2013-02-15 02:21:00,34.0,24.0,29.91,WSW,254,7.0,15.0,67,0.00,,,0.01,,2013-02-15 07:21:00,
2013-02-15 02:32:00,34.0,25.0,29.91,WSW,251,8.0,15.0,68,0.00,,,0.01,,2013-02-15 07:32:00,
2013-02-15 02:42:00,34.0,25.0,29.91,WSW,251,8.0,15.0,68,0.00,,,0.01,,2013-02-15 07:42:00,
2013-02-15 02:52:00,34.0,25.0,29.91,WSW,252,7.0,16.0,68,0.00,,,0.01,,2013-02-15 07:52:00,
2013-02-15 03:01:00,34.0,25.0,29.91,SW,235,5.0,10.0,68,0.00,,,0.01,,2013-02-15 08:01:00,
2013-02-15 03:11:00,34.0,25.0,29.91,SW,235,5.0,10.0,68,0.00,,,0.01,,2013-02-15 08:11:00,
2013-02-15 03:21:00,34.0,25.0,29.91,WSW,237,5.0,12.0,69,0.00,,,0.01,,2013-02-15 08:21:00,
2013-02-15 03:32:00,34.0,25.0,29.91,WSW,237,5.0,12.0,69,0.00,,,0.01,,2013-02-15 08:32:00,
2013-02-15 03:42:00,34.0,25.0,29.91,WSW,237,5.0,12.0,69,0.00,,,0.01,,2013-02-15 08:42:00,
2013-02-15 03:52:00,33.0,25.0,29.92,West,269,6.0,13.0,71,0.00,,,0.01,,2013-02-15 08:52:00,
2013-02-15 04:02:00,33.0,25.0,29.93,SW,221,4.0,10.0,72,0.00,,,0.01,,2013-02-15 09:02:00,
2013-02-15 04:12:00,33.0,25.0,29.93,SW,221,4.0,10.0,72,0.00,,,0.01,,2013-02-15 09:12:00,
2013-02-15 04:22:00,32.0,24.0,29.93,West,261,6.0,12.0,73,0.00,,,0.01,,2013-02-15 09:22:00,
2013-02-15 04:32:00,32.0,24.0,29.93,West,261,6.0,12.0,73,0.00,,,0.01,,2013-02-15 09:32:00,
2013-02-15 04:42:00,32.0,24.0,29.93,West,261,6.0,12.0,73,0.00,,,0.01,,2013-02-15 09:42:00,
2013-02-15 04:52:00,32.0,25.0,29.93,SW,235,5.0,14.0,76,0.00,,,0.01,,2013-02-15 09:52:00,
2013-02-15 05:02:00,32.0,26.0,29.93,West,259,4.0,10.0,77,0.00,,,0.01,,2013-02-15 10:02:00,
2013-02-15 05:11:00,32.0,26.0,29.93,West,259,4.0,10.0,77,0.00,,,0.01,,2013-02-15 10:11:00,
2013-02-15 05:21:00,32.0,26.0,29.94,West,269,4.0,12.0,78,0.00,,,0.01,,2013-02-15 10:21:00,
2013-02-15 05:32:00,31.0,25.0,29.95,West,263,3.0,9.0,79,0.00,,,0.01,,2013-02-15 10:32:00,
2013-02-15 05:42:00,31.0,25.0,29.95,West,263,3.0,9.0,79,0.00,,,0.01,,2013-02-15 10:42:00,
2013-02-15 05:52:00,31.0,25.0,29.95,West,263,3.0,9.0,79,0.00,,,0.01,,2013-02-15 10:52:00,
2013-02-15 06:01:00,31.0,26.0,29.96,WSW,257,4.0,8.0,80,0.00,,,0.01,,2013-02-15 11:01:00,
2013-02-15 06:11:00,31.0,26.0,29.96,WSW,257,4.0,8.0,80,0.00,,,0.01,,2013-02-15 11:11:00,
2013-02-15 06:23:00,31.0,26.0,29.96,West,259,2.0,7.0,80,0.00,,,0.01,,2013-02-15 11:23:00,
2013-02-15 06:32:00,31.0,26.0,29.97,West,259,3.0,7.0,80,0.00,,,0.01,,2013-02-15 11:32:00,
2013-02-15 06:42:00,31.0,26.0,29.97,West,259,3.0,7.0,80,0.00,,,0.01,,2013-02-15 11:42:00,
2013-02-15 06:52:00,31.0,26.0,29.97,WSW,256,3.0,8.0,80,0.00,,,0.01,,2013-02-15 11:52:00,
2013-02-15 07:02:00,31.0,26.0,29.98,WSW,252,2.0,8.0,80,0.00,,,0.01,,2013-02-15 12:02:00,
2013-02-15 07:11:00,31.0,26.0,29.98,WSW,252,2.0,8.0,80,0.00,,,0.01,,2013-02-15 12:11:00,
2013-02-15 07:22:00,31.0,25.0,29.98,WSW,241,2.0,9.0,79,0.00,,,0.01,,2013-02-15 12:22:00,
2013-02-15 07:32:00,31.0,25.0,29.98,WSW,241,4.0,8.0,79,0.00,,,0.01,,2013-02-15 12:32:00,
2013-02-15 07:42:00,31.0,25.0,29.98,WSW,241,4.0,8.0,79,0.00,,,0.01,,2013-02-15 12:42:00,
2013-02-15 07:52:00,31.0,25.0,29.99,WSW,243,4.0,7.0,79,0.00,,,0.01,,2013-02-15 12:52:00,
2013-02-15 08:02:00,31.0,25.0,30.00,WSW,254,2.0,8.0,79,0.00,,,0.01,,2013-02-15 13:02:00,
2013-02-15 08:11:00,31.0,25.0,30.00,WSW,254,2.0,8.0,79,0.00,,,0.01,,2013-02-15 13:11:00,
2013-02-15 08:22:00,31.0,26.0,30.01,SW,230,3.0,11.0,80,0.00,,,0.01,,2013-02-15 13:22:00,
2013-02-15 08:32:00,31.0,26.0,30.01,West,277,4.0,11.0,80,0.00,,,0.01,,2013-02-15 13:32:00,
2013-02-15 08:42:00,31.0,26.0,30.01,West,277,4.0,11.0,80,0.00,,,0.01,,2013-02-15 13:42:00,
2013-02-15 08:52:00,31.0,26.0,30.02,West,278,4.0,9.0,80,0.00,,,0.01,,2013-02-15 13:52:00,
2013-02-15 09:01:00,31.0,26.0,30.02,WSW,243,5.0,10.0,80,0.00,,,0.01,,2013-02-15 14:01:00,
2013-02-15 09:12:00,31.0,26.0,30.02,WSW,243,5.0,10.0,80,0.00,,,0.01,,2013-02-15 14:12:00,
2013-02-15 09:22:00,31.0,26.0,30.02,West,270,4.0,10.0,80,0.00,,,0.01,,2013-02-15 14:22:00,
2013-02-15 09:32:00,31.0,26.0,30.03,SW,218,6.0,10.0,80,0.00,,,0.01,,2013-02-15 14:32:00,
2013-02-15 09:42:00,31.0,26.0,30.03,SW,218,6.0,10.0,80,0.00,,,0.01,,2013-02-15 14:42:00,
2013-02-15 09:52:00,31.0,26.0,30.03,WSW,244,4.0,9.0,81,0.00,,,0.01,,2013-02-15 14:52:00,
2013-02-15 10:02:00,31.0,26.0,30.04,West,260,6.0,12.0,81,0.00,,,0.01,,2013-02-15 15:02:00,
2013-02-15 10:11:00,31.0,26.0,30.04,West,260,6.0,12.0,81,0.00,,,0.01,,2013-02-15 15:11:00,
2013-02-15 10:22:00,31.0,26.0,30.04,WNW,293,5.0,10.0,82,0.00,,,0.01,,2013-02-15 15:22:00,
2013-02-15 10:32:00,31.0,27.0,30.04,West,263,4.0,10.0,85,0.00,,,0.01,,2013-02-15 15:32:00,
2013-02-15 10:42:00,31.0,27.0,30.04,West,263,4.0,10.0,85,0.00,,,0.01,,2013-02-15 15:42:00,
2013-02-15 10:52:00,30.0,27.0,30.04,WNW,289,6.0,12.0,87,0.00,,,0.01,,2013-02-15 15:52:00,
2013-02-15 11:02:00,30.0,27.0,30.05,WSW,254,4.0,12.0,88,0.00,,,0.01,,2013-02-15 16:02:00,
2013-02-15 11:12:00,30.0,27.0,30.05,WSW,254,4.0,12.0,88,0.00,,,0.01,,2013-02-15 16:12:00,
2013-02-15 11:22:00,29.0,26.0,30.05,NW,308,6.0,12.0,90,0.00,,,0.01,,2013-02-15 16:22:00,
2013-02-15 11:32:00,29.0,26.0,30.06,WNW,296,3.0,9.0,90,0.00,,,0.01,,2013-02-15 16:32:00,
2013-02-15 11:42:00,29.0,26.0,30.06,WNW,296,3.0,9.0,90,0.00,,,0.01,,2013-02-15 16:42:00,
2013-02-15 11:52:00,29.0,27.0,30.06,NW,311,5.0,9.0,91,0.00,,,0.01,,2013-02-15 16:52:00,
2013-02-15 12:01:00,28.0,26.0,30.06,West,281,2.0,7.0,91,0.00,,,0.01,,2013-02-15 17:01:00,
2013-02-15 12:11:00,28.0,26.0,30.06,West,279,1.0,6.0,91,0.00,,,0.01,,2013-02-15 17:11:00,
2013-02-15 12:21:00,28.0,26.0,30.06,West,279,1.0,6.0,91,0.00,,,0.01,,2013-02-15 17:21:00,
2013-02-15 12:32:00,28.0,26.0,30.05,WNW,300,3.0,6.0,91,0.00,,,0.01,,2013-02-15 17:32:00,
2013-02-15 12:42:00,28.0,26.0,30.05,WNW,300,3.0,6.0,91,0.00,,,0.01,,2013-02-15 17:42:00,
2013-02-15 12:52:00,29.0,26.0,30.05,West,271,3.0,8.0,89,0.00,,,0.01,,2013-02-15 17:52:00,
2013-02-15 13:02:00,30.0,27.0,30.05,WNW,284,4.0,7.0,87,0.00,,,0.01,,2013-02-15 18:02:00,
2013-02-15 13:12:00,30.0,27.0,30.05,WNW,284,4.0,7.0,87,0.00,,,0.01,,2013-02-15 18:12:00,
2013-02-15 13:22:00,30.0,26.0,30.04,WNW,298,4.0,10.0,86,0.00,,,0.01,,2013-02-15 18:22:00,
2013-02-15 13:32:00,30.0,26.0,30.04,WNW,293,5.0,12.0,84,0.00,,,0.01,,2013-02-15 18:32:00,
2013-02-15 13:42:00,30.0,26.0,30.04,WNW,293,5.0,12.0,84,0.00,,,0.01,,2013-02-15 18:42:00,
2013-02-15 13:52:00,30.0,26.0,30.04,WNW,301,6.0,12.0,84,0.00,,,0.01,,2013-02-15 18:52:00,
2013-02-15 14:02:00,30.0,24.0,30.03,WNW,282,5.0,11.0,78,0.00,,,0.01,,2013-02-15 19:02:00,
2013-02-15 14:11:00,30.0,24.0,30.03,WNW,282,5.0,11.0,78,0.00,,,0.01,,2013-02-15 19:11:00,
2013-02-15 14:22:00,30.0,24.0,30.03,West,273,6.0,11.0,79,0.00,,,0.01,,2013-02-15 19:22:00,
2013-02-15 14:32:00,29.0,23.0,30.03,NW,310,6.0,11.0,78,0.00,,,0.01,,2013-02-15 19:32:00,
2013-02-15 14:42:00,29.0,23.0,30.03,NW,310,6.0,11.0,78,0.00,,,0.01,,2013-02-15 19:42:00,
2013-02-15 14:52:00,29.0,23.0,30.04,NNW,333,4.0,11.0,78,0.00,,,0.01,,2013-02-15 19:52:00,
2013-02-15 15:02:00,29.0,24.0,30.04,WNW,289,5.0,12.0,80,0.00,,,0.01,,2013-02-15 20:02:00,
2013-02-15 15:11:00,29.0,24.0,30.04,WNW,289,5.0,12.0,80,0.00,,,0.01,,2013-02-15 20:11:00,
2013-02-15 15:21:00,29.0,24.0,30.04,WNW,285,5.0,10.0,81,0.01,,,0.02,,2013-02-15 20:21:00,
2013-02-15 15:32:00,29.0,24.0,30.05,NW,306,7.0,12.0,81,0.01,,,0.02,,2013-02-15 20:32:00,
2013-02-15 15:42:00,29.0,24.0,30.05,NW,306,7.0,12.0,81,0.01,,,0.02,,2013-02-15 20:42:00,
2013-02-15 15:52:00,28.0,22.0,30.05,WNW,301,6.0,10.0,78,0.01,,,0.02,,2013-02-15 20:52:00,
2013-02-15 16:02:00,28.0,23.0,30.05,NW,316,5.0,10.0,80,0.01,,,0.02,,2013-02-15 21:02:00,
2013-02-15 16:11:00,28.0,23.0,30.05,NW,316,5.0,10.0,80,0.01,,,0.02,,2013-02-15 21:11:00,
2013-02-15 16:22:00,28.0,22.0,30.06,NW,321,4.0,11.0,79,0.00,,,0.02,,2013-02-15 21:22:00,
2013-02-15 16:32:00,28.0,23.0,30.06,WNW,299,5.0,9.0,81,0.00,,,0.02,,2013-02-15 21:32:00,
2013-02-15 16:42:00,28.0,23.0,30.06,WNW,299,5.0,9.0,81,0.00,,,0.02,,2013-02-15 21:42:00,
2013-02-15 16:52:00,27.0,22.0,30.06,WNW,295,6.0,10.0,80,0.00,,,0.02,,2013-02-15 21:52:00,
2013-02-15 17:02:00,27.0,22.0,30.06,NW,311,4.0,8.0,81,0.00,,,0.02,,2013-02-15 22:02:00,
2013-02-15 17:11:00,27.0,22.0,30.06,NW,311,4.0,8.0,81,0.00,,,0.02,,2013-02-15 22:11:00,
2013-02-15 17:22:00,27.0,21.0,30.07,NW,313,3.0,7.0,79,0.00,,,0.02,,2013-02-15 22:22:00,
2013-02-15 17:32:00,27.0,21.0,30.07,WNW,296,4.0,8.0,78,0.00,,,0.01,,2013-02-15 22:32:00,
2013-02-15 17:42:00,27.0,21.0,30.07,WNW,296,4.0,8.0,78,0.00,,,0.01,,2013-02-15 22:42:00,
2013-02-15 17:52:00,27.0,21.0,30.08,NW,310,5.0,8.0,78,0.00,,,0.01,,2013-02-15 22:52:00,
2013-02-15 18:02:00,26.0,22.0,30.09,WNW,293,4.0,8.0,84,0.00,,,0.01,,2013-02-15 23:02:00,
2013-02-15 18:11:00,26.0,22.0,30.09,WNW,293,4.0,8.0,84,0.00,,,0.01,,2013-02-15 23:11:00,
2013-02-15 18:21:00,26.0,22.0,30.09,WNW,284,3.0,8.0,86,0.00,,,0.01,,2013-02-15 23:21:00,
2013-02-15 18:32:00,26.0,22.0,30.09,West,275,1.0,6.0,85,0.00,,,0.01,,2013-02-15 23:32:00,
2013-02-15 18:42:00,26.0,22.0,30.09,West,275,1.0,6.0,85,0.00,,,0.01,,2013-02-15 23:42:00,
2013-02-15 18:52:00,26.0,22.0,30.09,West,275,1.0,4.0,85,0.00,,,0.01,,2013-02-15 23:52:00,
2013-02-15 19:02:00,26.0,22.0,30.09,West,275,1.0,4.0,85,0.00,,,0.01,,2013-02-16 00:02:00,
2013-02-15 19:11:00,26.0,22.0,30.09,West,275,1.0,4.0,85,0.00,,,0.01,,2013-02-16 00:11:00,
2013-02-15 19:22:00,26.0,22.0,30.09,West,275,1.0,4.0,85,0.00,,,0.01,,2013-02-16 00:22:00,
2013-02-15 19:32:00,26.0,22.0,30.09,West,275,0.0,2.0,84,0.00,,,0.01,,2013-02-16 00:32:00,
2013-02-15 19:42:00,26.0,22.0,30.09,West,275,0.0,2.0,84,0.00,,,0.01,,2013-02-16 00:42:00,
2013-02-15 19:51:00,26.0,22.0,30.10,West,275,0.0,0.0,84,0.00,,,0.01,,2013-02-16 00:51:00,
2013-02-15 20:02:00,26.0,22.0,30.09,West,275,0.0,2.0,83,0.00,,,0.01,,2013-02-16 01:02:00,
2013-02-15 20:11:00,26.0,22.0,30.09,West,275,0.0,2.0,83,0.00,,,0.01,,2013-02-16 01:11:00,
2013-02-15 20:21:00,26.0,22.0,30.10,NE,44,1.0,3.0,83,0.00,,,0.01,,2013-02-16 01:21:00,
2013-02-15 20:32:00,26.0,21.0,30.09,NW,318,1.0,5.0,82,0.00,,,0.01,,2013-02-16 01:32:00,
2013-02-15 20:42:00,26.0,21.0,30.09,NW,318,1.0,5.0,82,0.00,,,0.01,,2013-02-16 01:42:00,
2013-02-15 20:52:00,26.0,21.0,30.10,NNW,347,2.0,5.0,82,0.00,,,0.01,,2013-02-16 01:52:00,
2013-02-15 21:01:00,26.0,21.0,30.10,North,350,0.0,5.0,81,0.00,,,0.01,,2013-02-16 02:01:00,
2013-02-15 21:11:00,26.0,21.0,30.10,North,350,0.0,5.0,81,0.00,,,0.01,,2013-02-16 02:11:00,
2013-02-15 21:22:00,26.0,21.0,30.10,NW,323,0.0,5.0,81,0.00,,,0.01,,2013-02-16 02:22:00,
2013-02-15 21:32:00,25.0,20.0,30.11,NW,323,0.0,1.0,80,0.00,,,0.01,,2013-02-16 02:32:00,
2013-02-15 21:42:00,25.0,20.0,30.11,NW,323,0.0,1.0,80,0.00,,,0.01,,2013-02-16 02:42:00,
2013-02-15 21:52:00,25.0,20.0,30.11,NW,323,0.0,0.0,80,0.00,,,0.01,,2013-02-16 02:52:00,
2013-02-15 22:02:00,25.0,19.0,30.11,NW,323,0.0,3.0,79,0.00,,,0.01,,2013-02-16 03:02:00,
2013-02-15 22:11:00,25.0,19.0,30.11,NW,323,0.0,3.0,79,0.00,,,0.01,,2013-02-16 03:11:00,
2013-02-15 22:21:00,26.0,20.0,30.11,NW,323,0.0,3.0,77,0.00,,,0.01,,2013-02-16 03:21:00,
2013-02-15 22:32:00,26.0,19.0,30.11,NW,323,1.0,5.0,75,0.00,,,0.01,,2013-02-16 03:32:00,
2013-02-15 22:42:00,26.0,19.0,30.11,NW,323,1.0,5.0,75,0.00,,,0.01,,2013-02-16 03:42:00,
2013-02-15 22:52:00,26.0,18.0,30.11,WNW,296,2.0,5.0,72,0.00,,,0.01,,2013-02-16 03:52:00,
2013-02-15 23:01:00,26.0,18.0,30.10,NW,317,2.0,8.0,72,0.00,,,0.01,,2013-02-16 04:01:00,
2013-02-15 23:11:00,26.0,18.0,30.10,NW,317,2.0,8.0,72,0.00,,,0.01,,2013-02-16 04:11:00,
2013-02-15 23:21:00,26.0,19.0,30.10,North,5,2.0,5.0,73,0.00,,,0.01,,2013-02-16 04:21:00,
2013-02-15 23:32:00,26.0,19.0,30.10,North,360,1.0,4.0,76,0.00,,,0.01,,2013-02-16 04:32:00,
2013-02-15 23:42:00,26.0,19.0,30.10,North,360,1.0,4.0,76,0.00,,,0.01,,2013-02-16 04:42:00,
2013-02-15 23:51:00,26.0,20.0,30.10,North,350,2.0,4.0,77,0.00,,,0.01,,2013-02-16 04:51:00,